When you browse on this site, cookies collect data to enhance your experience and personalize the content and advertising you see.
Visit our Privacy Policy to learn more. By continuing to use the site, you agree to this use of cookies and data.
  • In Czech Republic
  • List of Countries
  • For 7 days
  • Water Temperature
  • Weather Map
  • Weather Widgets
  • user-avatar
    Login

    Hourly Weather Zakuplene

    Today, 7 April, Tuesday

    Time Temperature Precipitation Wind Pressure Humidity
    00:00 +6°C° 0 mm 1 mps 762 mmHg 69%
    01:00 +6°C° 0 mm 1 mps 762 mmHg 70%
    02:00 +6°C° 0 mm 1 mps 762 mmHg 68%
    03:00 +5°C° 0 mm 1 mps 762 mmHg 69%
    04:00 +5°C° 0 mm 1 mps 762 mmHg 70%
    05:00 +5°C° 0 mm 1 mps 762 mmHg 71%
    06:00 +6°C° 0 mm 1 mps 762 mmHg 67%
    07:00 +6°C° 0 mm 2 mps 762 mmHg 64%
    08:00 +8°C° 0 mm 2 mps 762 mmHg 58%
    09:00 +10°C° 0 mm 3 mps 762 mmHg 52%
    10:00 +11°C° 0 mm 3 mps 762 mmHg 46%
    11:00 +13°C° 0 mm 4 mps 762 mmHg 41%
    12:00 +14°C° 0 mm 4 mps 761 mmHg 39%
    13:00 +14°C° 0 mm 4 mps 761 mmHg 37%
    14:00 +15°C° 0 mm 5 mps 760 mmHg 36%
    15:00 +15°C° 0 mm 4 mps 760 mmHg 37%
    16:00 +15°C° 0 mm 4 mps 759 mmHg 39%
    17:00 +14°C° 0 mm 3 mps 759 mmHg 40%
    18:00 +13°C° 0 mm 3 mps 758 mmHg 44%
    19:00 +11°C° 0 mm 3 mps 758 mmHg 48%
    20:00 +8°C° 0 mm 4 mps 757 mmHg 53%
    21:00 +8°C° 0 mm 4 mps 757 mmHg 53%
    22:00 +8°C° 0 mm 4 mps 757 mmHg 53%
    23:00 +8°C° 0 mm 4 mps 756 mmHg 54%

    Tomorrow, 8 April, Wednesday

    Time Temperature Precipitation Wind Pressure Humidity
    00:00 +7°C° 0 mm 5 mps 756 mmHg 57%
    01:00 +7°C° 0 mm 5 mps 756 mmHg 60%
    02:00 +7°C° 0 mm 5 mps 755 mmHg 63%
    03:00 +7°C° 0 mm 5 mps 755 mmHg 69%
    04:00 +6°C° 0 mm 4 mps 755 mmHg 76%
    05:00 +5°C° 0 mm 4 mps 754 mmHg 82%
    06:00 +6°C° 0 mm 5 mps 755 mmHg 79%
    07:00 +6°C° 0 mm 5 mps 755 mmHg 76%
    08:00 +7°C° 0 mm 6 mps 755 mmHg 74%
    09:00 +8°C° 0 mm 6 mps 755 mmHg 69%
    10:00 +9°C° 0 mm 5 mps 756 mmHg 64%
    11:00 +11°C° 0 mm 4 mps 756 mmHg 59%
    12:00 +12°C° 0 mm 4 mps 756 mmHg 58%
    13:00 +12°C° 0 mm 4 mps 756 mmHg 56%
    14:00 +13°C° 0 mm 4 mps 755 mmHg 55%
    15:00 +13°C° 0 mm 4 mps 755 mmHg 54%
    16:00 +13°C° 0 mm 3 mps 755 mmHg 52%
    17:00 +13°C° 0 mm 3 mps 755 mmHg 51%
    18:00 +12°C° 0 mm 2 mps 755 mmHg 56%
    19:00 +10°C° 0 mm 2 mps 755 mmHg 61%
    20:00 +9°C° 0 mm 1 mps 754 mmHg 66%
    21:00 +8°C° 0 mm 1 mps 754 mmHg 67%
    22:00 +8°C° 0 mm 1 mps 754 mmHg 68%
    23:00 +7°C° 0 mm 1 mps 754 mmHg 69%

    Day after tomorrow, 9 April, Thursday

    Time Temperature Precipitation Wind Pressure Humidity
    00:00 +7°C° 0 mm 1 mps 754 mmHg 70%
    01:00 +6°C° 0 mm 1 mps 753 mmHg 71%
    02:00 +6°C° 0 mm 1 mps 753 mmHg 71%
    03:00 +6°C° 0 mm 1 mps 753 mmHg 72%
    04:00 +5°C° 0 mm 1 mps 753 mmHg 74%
    05:00 +4°C° 0 mm 2 mps 752 mmHg 75%
    06:00 +5°C° 0 mm 2 mps 752 mmHg 71%
    07:00 +7°C° 0 mm 3 mps 751 mmHg 66%
    08:00 +8°C° 0 mm 3 mps 751 mmHg 62%
    09:00 +10°C° 0 mm 4 mps 750 mmHg 58%
    10:00 +12°C° 0 mm 4 mps 750 mmHg 53%
    11:00 +13°C° 0 mm 4 mps 749 mmHg 48%
    12:00 +14°C° 0 mm 5 mps 749 mmHg 46%
    13:00 +15°C° 0 mm 5 mps 748 mmHg 44%
    14:00 +16°C° 0 mm 5 mps 748 mmHg 42%
    15:00 +17°C° 0 mm 4 mps 747 mmHg 46%
    16:00 +16°C° 0 mm 3 mps 747 mmHg 51%
    17:00 +16°C° 0 mm 2 mps 746 mmHg 56%
    18:00 +13°C° 0.5 mm 3 mps 746 mmHg 67%
    19:00 +11°C° 0.5 mm 3 mps 746 mmHg 78%
    20:00 +10°C° 0.5 mm 3 mps 746 mmHg 89%
    21:00 +9°C° 0.3 mm 3 mps 745 mmHg 89%
    22:00 +9°C° 0.3 mm 3 mps 745 mmHg 90%
    23:00 +9°C° 0.3 mm 3 mps 745 mmHg 90%

    10 April, Friday

    Time Temperature Precipitation Wind Pressure Humidity
    00:00 +9°C° 0.3 mm 3 mps 745 mmHg 90%
    01:00 +8°C° 0.3 mm 4 mps 745 mmHg 90%
    02:00 +7°C° 0.3 mm 4 mps 745 mmHg 89%
    03:00 +6°C° 0.3 mm 5 mps 746 mmHg 85%
    04:00 +5°C° 0.3 mm 5 mps 746 mmHg 81%
    05:00 +2°C° 0.3 mm 5 mps 746 mmHg 77%
    06:00 +2°C° 0 mm 6 mps 747 mmHg 74%
    07:00 +2°C° 0 mm 6 mps 747 mmHg 72%
    08:00 +2°C° 0 mm 6 mps 748 mmHg 69%
    09:00 +3°C° 0 mm 6 mps 748 mmHg 65%
    10:00 +3°C° 0 mm 6 mps 748 mmHg 61%
    11:00 +4°C° 0 mm 6 mps 749 mmHg 57%
    12:00 +5°C° 0 mm 6 mps 749 mmHg 54%
    13:00 +5°C° 0 mm 6 mps 749 mmHg 51%
    14:00 +7°C° 0 mm 6 mps 749 mmHg 48%
    15:00 +7°C° 0 mm 6 mps 749 mmHg 48%
    16:00 +7°C° 0 mm 6 mps 749 mmHg 47%
    17:00 +7°C° 0 mm 6 mps 749 mmHg 47%
    18:00 +5°C° 0 mm 5 mps 750 mmHg 53%
    19:00 +4°C° 0 mm 4 mps 750 mmHg 58%
    20:00 +3°C° 0 mm 3 mps 750 mmHg 64%
    21:00 +3°C° 0 mm 3 mps 750 mmHg 67%
    22:00 +2°C° 0 mm 3 mps 750 mmHg 69%
    23:00 +2°C° 0 mm 3 mps 751 mmHg 71%

    11 April, Saturday

    Time Temperature Precipitation Wind Pressure Humidity
    00:00 +1°C° 0 mm 3 mps 751 mmHg 74%
    01:00 +1°C° 0 mm 3 mps 751 mmHg 77%
    02:00 0°C° 0 mm 3 mps 751 mmHg 80%
    03:00 0°C° 0 mm 3 mps 751 mmHg 81%
    04:00 -1°C° 0 mm 3 mps 752 mmHg 81%
    05:00 -1°C° 0 mm 3 mps 752 mmHg 82%
    06:00 -1°C° 0 mm 4 mps 752 mmHg 76%
    07:00 -1°C° 0 mm 4 mps 752 mmHg 70%
    08:00 0°C° 0 mm 4 mps 752 mmHg 64%
    09:00 +1°C° 0 mm 4 mps 753 mmHg 58%
    10:00 +4°C° 0 mm 4 mps 753 mmHg 52%
    11:00 +5°C° 0 mm 4 mps 753 mmHg 46%
    12:00 +5°C° 0 mm 4 mps 753 mmHg 44%
    13:00 +6°C° 0 mm 4 mps 753 mmHg 43%
    14:00 +6°C° 0 mm 4 mps 753 mmHg 41%
    15:00 +6°C° 0 mm 4 mps 753 mmHg 43%
    16:00 +7°C° 0 mm 3 mps 753 mmHg 45%
    17:00 +5°C° 0 mm 3 mps 753 mmHg 46%
    18:00 +4°C° 0 mm 3 mps 753 mmHg 51%
    19:00 +4°C° 0 mm 2 mps 754 mmHg 56%
    20:00 +4°C° 0 mm 1 mps 754 mmHg 61%
    21:00 +3°C° 0 mm 1 mps 754 mmHg 62%
    22:00 +3°C° 0 mm 1 mps 754 mmHg 64%
    23:00 +2°C° 0 mm 1 mps 754 mmHg 65%

    12 April, Sunday

    Time Temperature Precipitation Wind Pressure Humidity
    00:00 +2°C° 0 mm 1 mps 754 mmHg 66%
    01:00 +1°C° 0 mm 0 mps 754 mmHg 66%
    02:00 0°C° 0 mm 0 mps 754 mmHg 67%
    03:00 0°C° 0 mm 0 mps 754 mmHg 67%
    04:00 +1°C° 0 mm 1 mps 754 mmHg 67%
    05:00 +1°C° 0 mm 1 mps 754 mmHg 68%
    06:00 +1°C° 0 mm 2 mps 754 mmHg 63%
    07:00 +3°C° 0 mm 2 mps 754 mmHg 58%
    08:00 +4°C° 0 mm 2 mps 753 mmHg 53%
    09:00 +5°C° 0 mm 3 mps 753 mmHg 50%
    10:00 +7°C° 0 mm 3 mps 753 mmHg 46%
    11:00 +7°C° 0 mm 4 mps 752 mmHg 43%
    12:00 +8°C° 0 mm 4 mps 751 mmHg 42%
    13:00 +8°C° 0 mm 4 mps 751 mmHg 42%
    14:00 +10°C° 0 mm 4 mps 750 mmHg 41%
    15:00 +10°C° 0 mm 4 mps 750 mmHg 42%
    16:00 +10°C° 0 mm 4 mps 749 mmHg 43%
    17:00 +10°C° 0 mm 4 mps 748 mmHg 44%
    18:00 +7°C° 0 mm 4 mps 748 mmHg 49%
    19:00 +7°C° 0 mm 3 mps 747 mmHg 55%
    20:00 +5°C° 0 mm 3 mps 747 mmHg 60%
    21:00 +4°C° 0 mm 3 mps 746 mmHg 60%
    22:00 +4°C° 0 mm 4 mps 746 mmHg 60%
    23:00 +4°C° 0 mm 4 mps 745 mmHg 60%
    Show more